time_stamp(utc),avg(mph),gust(mph),direction(deg),12m_air_temp(f),sonic_u(cm/s),sonic_v(cm/s),sonic_w(cm/s),pressure,2m_air_temp(f),pyranometer(W/m^2)
"2018-05-28 00:02:07+00",25.1,27.1,,55.5,1063,359,185,1016.09,55.2,0
"2018-05-28 00:07:07+00",29.2,31.2,,55.5,1062,727,60,1015.91,55.2,0
"2018-05-28 00:12:07+00",26.9,28.9,,55.4,931,714,59,1016.04,55.2,0
"2018-05-28 00:17:07+00",26.2,31.2,,55.4,1015,563,115,1016.06,55.3,0
"2018-05-28 00:22:07+00",25.7,27.7,,55.6,994,537,126,1016.15,55.3,0
"2018-05-28 00:27:07+00",28.6,30.6,,55.4,1054,684,93,1016.19,55.3,0
"2018-05-28 00:32:07+00",26.8,29.8,,55.7,986,662,70,1016.31,55.4,0
"2018-05-28 00:37:07+00",27.2,29.2,,55.7,1017,637,66,1016.25,55.4,0
"2018-05-28 00:42:07+00",27.8,30.8,,55.6,1069,594,102,1016.16,55.3,0
"2018-05-28 00:47:07+00",28.3,32.3,,55.4,1064,651,54,1016.08,55.3,0
"2018-05-28 00:52:07+00",27.8,31.8,,55.4,1037,665,64,1016.12,55.3,0
"2018-05-28 00:57:07+00",24.0,28.0,,55.4,929,511,78,1016.12,55.3,0
"2018-05-28 01:02:07+00",28.3,33.3,,55.3,1066,665,59,1016.11,55.1,0
"2018-05-28 01:07:07+00",27.1,30.1,,55.3,1014,647,64,1016.1,55.1,0
"2018-05-28 01:12:07+00",26.2,30.2,,55.4,954,658,87,1016.14,55.2,0
"2018-05-28 01:17:07+00",30.4,33.4,,55.4,1160,677,71,1016.07,55.2,0
"2018-05-28 01:22:07+00",29.5,31.5,,55.4,1114,674,41,1016.2,55.2,0
"2018-05-28 01:27:07+00",28.0,31.0,,55.4,1054,656,69,1016.34,55.3,0
"2018-05-28 01:32:07+00",29.7,31.7,,55.4,1133,667,64,1016.36,55.3,0
"2018-05-28 01:37:07+00",24.0,27.0,,55.5,923,534,56,1016.59,55.3,0
"2018-05-28 01:42:07+00",29.4,32.4,,55.6,1079,719,53,1016.87,55.3,0
"2018-05-28 01:47:07+00",27.2,29.2,,55.8,1027,653,40,1017.06,55.5,0
"2018-05-28 01:52:07+00",28.2,31.2,,55.7,1084,620,57,1017.19,55.5,0
"2018-05-28 01:57:07+00",27.4,31.4,,55.6,1052,631,63,1017.27,55.5,0
"2018-05-28 02:02:07+00",22.4,26.4,,55.5,913,424,44,1017.31,55.4,0
"2018-05-28 02:07:07+00",24.9,27.9,,55.4,925,609,43,1017.41,55.3,0
"2018-05-28 02:12:07+00",20.0,22.0,,55.4,818,379,27,1017.6,55.3,0
"2018-05-28 02:17:07+00",19.8,22.8,,55.5,777,425,34,1017.66,55.3,0
"2018-05-28 02:22:07+00",20.9,22.9,,55.6,867,392,19,1017.59,55.4,0
"2018-05-28 02:27:07+00",21.4,24.4,,55.7,882,400,21,1017.63,55.4,0
"2018-05-28 02:32:07+00",22.8,26.8,,55.8,964,402,27,1017.62,55.5,0
"2018-05-28 02:37:07+00",20.8,24.8,,55.9,884,359,28,1017.75,55.6,0
"2018-05-28 02:42:07+00",22.4,25.4,,55.8,957,385,10,1017.9,55.6,0
"2018-05-28 02:47:07+00",20.4,22.4,,55.8,805,430,23,1017.91,55.6,0
"2018-05-28 02:52:07+00",19.6,21.6,,55.7,795,383,24,1017.89,55.6,0
"2018-05-28 02:57:07+00",23.3,25.3,,55.6,924,479,19,1017.93,55.6,0
"2018-05-28 03:02:07+00",21.1,28.1,,55.6,831,441,22,1017.91,55.5,0
"2018-05-28 03:07:07+00",20.7,24.7,,55.5,804,456,33,1017.97,55.4,0
"2018-05-28 03:12:07+00",23.0,26.0,,55.5,902,486,32,1018,55.4,0
"2018-05-28 03:17:07+00",20.0,26.0,,55.5,791,422,25,1018.14,55.4,0
"2018-05-28 03:22:07+00",20.9,23.9,,55.5,880,364,22,1018.14,55.4,0
"2018-05-28 03:27:07+00",19.5,21.5,,55.5,805,353,19,1018.22,55.4,0
"2018-05-28 03:32:07+00",21.6,24.6,,55.4,878,417,53,1018.37,55.3,0
"2018-05-28 03:37:07+00",18.8,22.8,,55.4,749,387,42,1018.37,55.3,0
"2018-05-28 03:42:07+00",19.3,23.3,,55.4,757,411,42,1018.38,55.3,0
"2018-05-28 03:47:07+00",20.2,23.2,,55.4,769,467,22,1018.33,55.2,0
"2018-05-28 03:52:07+00",21.4,24.4,,55.1,756,561,45,1018.38,55,0
"2018-05-28 03:57:07+00",19.1,21.1,,54.8,561,290,213,1018.4,54.8,0
"2018-05-28 04:02:07+00",20.8,24.8,,54.7,833,393,59,1018.21,54.5,0
"2018-05-28 04:07:07+00",18.8,21.8,,54.6,686,447,68,1018.21,54.4,0
"2018-05-28 04:12:07+00",19.6,21.6,,54.5,778,377,49,1018.26,54.3,0
"2018-05-28 04:17:07+00",20.2,24.2,,54.7,850,303,131,1018.23,54.3,0
"2018-05-28 04:22:07+00",15.2,19.2,,54.8,603,304,35,1018.23,54.4,0
"2018-05-28 04:27:07+00",19.5,22.5,,54.8,848,347,29,1017.98,54.5,0
"2018-05-28 04:32:07+00",20.1,24.1,,54.7,823,384,47,1017.81,54.4,0
"2018-05-28 04:37:07+00",22.4,24.4,,54.7,967,367,50,1017.7,54.4,0
"2018-05-28 04:42:07+00",19.5,22.5,,54.8,820,320,74,1017.64,54.5,0
"2018-05-28 04:47:07+00",22.9,24.9,,54.9,978,444,32,1017.55,54.4,0
"2018-05-28 04:52:07+00",20.0,25.0,,55,967,404,-37,1017.53,54.6,0
"2018-05-28 04:57:07+00",18.8,21.8,,55,747,357,75,1017.53,54.6,0
"2018-05-28 05:02:07+00",21.0,23.0,,55.1,923,264,112,1017.43,54.6,0
"2018-05-28 05:07:07+00",18.6,21.6,,55.1,784,289,70,1017.36,54.6,0
"2018-05-28 05:12:07+00",20.9,23.9,,55,889,340,61,1017.26,54.5,0
"2018-05-28 05:17:07+00",20.9,26.9,,55.1,834,431,68,1017.29,54.6,0
"2018-05-28 05:22:07+00",20.6,23.6,,55.1,787,455,38,1017.19,54.6,0
"2018-05-28 05:27:07+00",17.9,20.9,,55,701,372,65,1017.29,54.6,0
"2018-05-28 05:32:07+00",20.6,23.6,,55,846,357,83,1017.22,54.6,0
"2018-05-28 05:37:07+00",18.9,21.9,,55,701,445,40,1017.31,54.6,0
"2018-05-28 05:42:07+00",22.0,25.0,,55,837,483,25,1017.15,54.6,0
"2018-05-28 05:47:07+00",19.3,23.3,,55.1,763,403,22,1017.06,54.7,0
"2018-05-28 05:52:07+00",20.7,22.7,,55.1,780,483,31,1016.84,54.7,0
"2018-05-28 05:57:07+00",20.1,24.1,,55.1,764,460,40,1016.66,54.8,0
"2018-05-28 06:02:07+00",20.7,22.7,,55.1,806,434,30,1016.5,54.9,0
"2018-05-28 06:07:07+00",20.7,23.7,,55,802,443,38,1016.46,54.8,0
"2018-05-28 06:12:07+00",15.4,18.4,,55.1,617,306,53,1016.45,54.7,0
"2018-05-28 06:17:07+00",18.8,21.8,,55.1,666,482,8,1016.52,54.8,0
"2018-05-28 06:22:07+00",17.8,20.8,,55.1,663,425,44,1016.61,54.7,0
"2018-05-28 06:27:07+00",18.1,20.1,,55.1,742,325,21,1016.53,54.8,0
"2018-05-28 06:32:07+00",17.3,21.3,,55.1,676,365,34,1016.6,54.8,0
"2018-05-28 06:37:07+00",17.6,21.6,,55.2,632,440,30,1016.58,55,0
"2018-05-28 06:42:07+00",17.4,20.4,,55.3,674,379,34,1016.68,55,0
"2018-05-28 06:47:07+00",15.5,17.5,,55.1,594,341,38,1016.7,54.9,0
"2018-05-28 06:52:07+00",18.6,20.6,,55.2,710,451,42,1016.71,54.9,0
"2018-05-28 06:57:07+00",20.0,22.0,,55.3,743,488,40,1016.67,54.9,0
"2018-05-28 07:02:07+00",17.2,21.2,,55.3,684,346,28,1016.64,55.1,0
"2018-05-28 07:07:07+00",20.0,23.0,,55.3,708,520,23,1016.66,55.1,0
"2018-05-28 07:12:07+00",17.2,20.2,,55.2,689,345,32,1016.61,55,0
"2018-05-28 07:17:07+00",20.5,22.5,,55.1,780,474,34,1016.59,54.9,0
"2018-05-28 07:22:07+00",17.3,19.3,,55,677,375,27,1016.61,54.9,0
"2018-05-28 07:27:07+00",17.4,19.4,,55.3,646,417,30,1016.53,55.1,0
"2018-05-28 07:32:07+00",17.3,19.3,,55.4,661,393,33,1016.5,55.3,0
"2018-05-28 07:37:07+00",15.8,17.8,,55.6,555,415,35,1016.41,55.4,0
"2018-05-28 07:42:07+00",18.5,22.5,,55.4,727,393,19,1016.23,55.3,0
"2018-05-28 07:47:07+00",14.8,16.8,,55.2,610,267,60,1016.15,55.1,0
"2018-05-28 07:52:07+00",17.3,19.3,,55,663,396,16,1016.23,55,0
"2018-05-28 07:57:07+00",19.0,22.0,,55,741,413,17,1016.22,55,0
"2018-05-28 08:02:07+00",17.8,20.8,,55.2,702,369,37,1016.24,55,0
"2018-05-28 08:07:07+00",21.5,23.5,,55.3,808,507,25,1016.28,55,0
"2018-05-28 08:12:07+00",19.7,22.7,,55.4,742,468,31,1016.45,55.1,0
"2018-05-28 08:17:07+00",17.8,21.8,,55.6,612,475,31,1016.45,55.2,0
"2018-05-28 08:22:07+00",15.2,16.2,,55.5,606,301,21,1016.5,55.3,0
"2018-05-28 08:27:07+00",13.8,16.8,,55.5,591,197,44,1016.67,55.3,0
"2018-05-28 08:32:07+00",12.9,14.9,,55.6,553,190,31,1016.86,55.4,0
"2018-05-28 08:37:07+00",13.4,16.4,,55.4,585,136,38,1016.76,55.4,0
"2018-05-28 08:42:07+00",17.8,19.8,,55,781,181,34,1016.59,55.1,0
"2018-05-28 08:47:07+00",17.7,21.7,,55,773,234,53,1016.58,55,0
"2018-05-28 08:52:07+00",15.2,17.2,,54.8,670,156,35,1016.81,54.8,0
"2018-05-28 08:57:07+00",18.0,20.0,,54.8,791,160,19,1016.68,54.8,0
"2018-05-28 09:02:07+00",15.8,18.8,,54.6,688,176,15,1016.87,54.7,0
"2018-05-28 09:07:07+00",15.0,19.0,,54.7,646,220,39,1016.98,54.8,0
"2018-05-28 09:12:07+00",15.1,17.1,,54.7,660,186,38,1017.09,54.7,0
"2018-05-28 09:17:07+00",17.2,20.2,,54.6,670,378,31,1017.29,54.6,0
"2018-05-28 09:22:07+00",14.7,16.7,,54.6,621,248,22,1017.36,54.6,0
"2018-05-28 09:27:07+00",13.9,17.9,,54.9,538,306,18,1017.58,54.7,0
"2018-05-28 09:32:07+00",13.4,17.4,,54.9,562,230,22,1017.7,54.8,0
"2018-05-28 09:37:07+00",15.0,20.0,,54.9,570,335,5,1017.75,54.8,0
"2018-05-28 09:42:07+00",14.9,17.9,,54.8,578,322,7,1017.66,54.7,0
"2018-05-28 09:47:07+00",15.4,17.4,,54.9,667,228,22,1017.58,54.7,0
"2018-05-28 09:52:07+00",11.1,13.1,,54.9,482,124,36,1017.57,54.9,0
"2018-05-28 09:57:07+00",11.6,12.6,,54.8,484,198,13,1017.51,54.8,0
"2018-05-28 10:02:07+00",12.7,14.7,,54.7,538,211,23,1017.39,54.7,0
"2018-05-28 10:07:07+00",12.9,14.9,,54.7,578,32,34,1017.29,54.7,0
"2018-05-28 10:12:07+00",12.7,13.7,,54.6,562,65,20,1017.56,54.7,0
"2018-05-28 10:17:07+00",11.8,13.8,,54.8,528,4,19,1017.58,54.8,0
"2018-05-28 10:22:07+00",11.1,12.1,,54.9,453,204,20,1017.64,54.9,0
"2018-05-28 10:27:07+00",11.9,12.9,,54.8,507,181,22,1017.73,54.9,0
"2018-05-28 10:32:07+00",11.1,12.1,,54.8,455,198,14,1017.76,54.8,0
"2018-05-28 10:37:07+00",10.6,13.6,,55,401,230,44,1017.81,54.9,0
"2018-05-28 10:42:07+00",11.3,13.3,,54.8,476,158,31,1017.86,54.9,0
"2018-05-28 10:47:07+00",12.2,14.2,,54.9,504,220,13,1017.92,54.9,0
"2018-05-28 10:52:07+00",12.5,13.5,,54.9,535,186,18,1017.87,54.9,0
"2018-05-28 10:57:07+00",11.3,13.3,,55,488,152,32,1017.83,55,0
"2018-05-28 11:02:07+00",11.1,13.1,,55,484,142,21,1017.91,55,0
"2018-05-28 11:07:07+00",11.3,13.3,,54.8,478,160,23,1017.89,55,0
"2018-05-28 11:12:07+00",10.2,11.2,,54.7,423,180,32,1017.87,54.9,0
"2018-05-28 11:17:07+00",13.3,14.3,,54.6,573,173,25,1017.96,54.9,0
"2018-05-28 11:22:07+00",12.5,13.5,,54.5,551,107,31,1017.99,54.9,0
"2018-05-28 11:27:07+00",12.9,15.9,,54.5,569,98,18,1017.93,54.9,3.2
"2018-05-28 11:32:07+00",11.9,13.9,,54.6,502,204,18,1017.95,55,0
"2018-05-28 11:37:07+00",11.6,13.6,,54.6,500,161,27,1017.99,55,5.8
"2018-05-28 11:42:07+00",11.2,12.2,,54.6,477,173,18,1018.07,55,0.7
"2018-05-28 11:47:07+00",11.9,13.9,,54.6,519,113,47,1018.11,55,11.2
"2018-05-28 11:52:07+00",13.1,14.1,,54.5,569,171,17,1018.04,55,17.9
"2018-05-28 11:57:07+00",12.9,14.9,,54.7,561,187,23,1018.1,55.1,31.6
"2018-05-28 12:02:07+00",12.9,14.9,,54.7,562,164,20,1018.16,55.3,29.4
"2018-05-28 12:07:07+00",13.5,15.5,,54.5,573,220,11,1018.27,55.2,20.3
"2018-05-28 12:12:07+00",11.5,12.5,,54.5,483,172,15,1018.4,55.1,23.1
"2018-05-28 12:17:07+00",10.2,13.2,,54.7,445,120,37,1018.32,55.3,41.3
"2018-05-28 12:22:07+00",11.9,12.9,,54.7,511,168,16,1018.34,55.5,41.2
"2018-05-28 12:27:07+00",10.7,11.7,,54.8,468,109,29,1018.35,55.6,37.1
"2018-05-28 12:32:07+00",10.5,12.5,,54.9,439,179,0,1018.32,55.8,52.8
"2018-05-28 12:37:07+00",12.2,14.2,,54.9,508,216,16,1018.35,55.8,47.7
"2018-05-28 12:42:07+00",9.4,10.4,,54.9,387,172,35,1018.36,55.8,48.7
"2018-05-28 12:47:07+00",10.1,12.1,,54.9,406,191,7,1018.35,56,95.2
"2018-05-28 12:52:07+00",12.7,13.7,,54.9,475,294,13,1018.36,55.9,57.3
"2018-05-28 12:57:07+00",10.4,12.4,,54.9,430,185,36,1018.27,56,47.1
"2018-05-28 13:02:07+00",11.9,12.9,,55,473,226,25,1018.13,56.1,55.7
"2018-05-28 13:07:07+00",12.2,13.2,,55,513,199,9,1018.07,56.2,110.7
"2018-05-28 13:12:07+00",11.2,13.2,,55.4,469,173,77,1018.09,56.6,101.9
"2018-05-28 13:17:07+00",11.9,13.9,,55.3,444,278,30,1017.95,56.7,117.5
"2018-05-28 13:22:07+00",10.7,11.7,,55.6,441,173,63,1017.9,57.1,188.4
"2018-05-28 13:27:07+00",12.1,13.1,,55.3,506,195,2,1017.84,57.6,216.6
"2018-05-28 13:32:07+00",10.4,12.4,,55.5,423,185,14,1017.86,57.9,234.7
"2018-05-28 13:37:07+00",11.1,12.1,,55.6,446,214,0,1017.81,58.5,238.3
"2018-05-28 13:42:07+00",9.8,11.8,,55.6,421,111,45,1017.82,58.5,174.5
"2018-05-28 13:47:07+00",10.4,11.4,,55.4,455,85,9,1017.81,58.4,165.4
"2018-05-28 13:52:07+00",10.5,12.5,,55.3,444,147,0,1017.7,58.3,215.3
"2018-05-28 13:57:07+00",10.0,13.0,,55.9,434,104,9,1017.74,58.7,240.5
"2018-05-28 14:02:07+00",10.2,11.2,,56.1,451,56,42,1017.83,59.2,201.5
"2018-05-28 14:07:07+00",11.0,12.0,,55.7,477,109,5,1017.95,58.9,140.2
"2018-05-28 14:12:07+00",9.7,10.7,,55.8,405,147,27,1018.04,58.7,105.5
"2018-05-28 14:17:07+00",10.6,12.6,,55.8,454,123,-6,1018.03,58.4,101.9
"2018-05-28 14:22:07+00",9.5,11.5,,55.8,396,144,13,1018.06,58.1,91
"2018-05-28 14:27:07+00",9.2,11.2,,56,353,192,36,1018.23,58,87.9
"2018-05-28 14:32:07+00",9.7,10.7,,56,420,142,21,1018.29,58,86.9
"2018-05-28 14:37:07+00",10.9,11.9,,56,413,243,20,1018.37,57.7,88.6
"2018-05-28 14:42:07+00",11.2,12.2,,56,427,243,4,1018.38,57.7,91.2
"2018-05-28 14:47:07+00",9.8,10.8,,56.3,389,187,20,1018.38,57.9,103
"2018-05-28 14:52:07+00",10.2,11.2,,56.4,436,136,11,1018.53,58.3,94.3
"2018-05-28 14:57:07+00",10.1,12.1,,56.4,418,167,2,1018.58,58.3,86.9
"2018-05-28 15:02:07+00",9.9,10.9,,56.5,415,145,52,1018.72,58.3,64.4
"2018-05-28 15:07:07+00",9.9,10.9,,56.5,427,118,11,1018.78,58.3,59.7
"2018-05-28 15:12:07+00",8.8,9.8,,56.7,368,119,40,1018.86,58.3,85.5
"2018-05-28 15:17:07+00",10.5,12.5,,56.7,455,111,24,1018.82,58.4,84.7
"2018-05-28 15:22:07+00",11.0,12.0,,56.6,468,130,20,1018.85,58.5,93
"2018-05-28 15:27:07+00",10.2,12.2,,56.7,449,66,13,1018.85,58.6,120.5
"2018-05-28 15:32:07+00",9.2,11.2,,56.8,392,131,-1,1018.86,58.8,118.6
"2018-05-28 15:37:07+00",9.0,11.0,,56.9,391,26,11,1018.78,58.9,114
"2018-05-28 15:42:07+00",9.1,10.1,,56.8,396,85,16,1018.82,58.9,103.4
"2018-05-28 15:47:07+00",9.5,11.5,,57,405,129,4,1018.7,59.1,123.8
"2018-05-28 15:52:07+00",9.9,11.9,,56.8,430,87,10,1018.76,59,122.7
"2018-05-28 15:57:07+00",9.8,11.8,,56.8,424,84,15,1018.76,59,124
"2018-05-28 16:02:07+00",8.6,9.6,,56.8,378,7,-2,1018.68,58.9,129.4
"2018-05-28 16:07:07+00",9.7,10.7,,56.8,427,-12,9,1018.69,58.9,125
"2018-05-28 16:12:07+00",8.8,9.8,,56.8,365,127,2,1018.73,58.9,121.1
"2018-05-28 16:17:07+00",9.5,10.5,,56.8,412,51,20,1018.83,59,142
"2018-05-28 16:22:07+00",9.6,11.6,,56.9,414,115,10,1018.89,59.2,143.6
"2018-05-28 16:27:07+00",8.0,9.0,,57,335,98,45,1018.84,59.3,152.5
"2018-05-28 16:32:07+00",10.1,12.1,,57,430,116,5,1018.96,59.5,145.5
"2018-05-28 16:37:07+00",8.9,9.9,,57.2,386,95,29,1019.01,59.7,163.5
"2018-05-28 16:42:07+00",9.4,10.4,,57.4,400,135,8,1019.04,60.1,194.7
"2018-05-28 16:47:07+00",9.5,11.5,,57.5,422,9,22,1019.01,60.3,203.6
"2018-05-28 16:52:07+00",9.5,10.5,,57.4,417,-64,28,1018.84,60.2,207.7
"2018-05-28 16:57:07+00",9.9,10.9,,57.3,437,-73,17,1018.76,60,228.9
"2018-05-28 17:02:07+00",12.6,13.6,,57.2,543,-134,-11,1018.66,59.8,209.5
"2018-05-28 17:07:07+00",11.3,12.3,,57,493,-87,-17,1018.63,59.6,238.5
"2018-05-28 17:12:07+00",11.3,12.3,,57.1,483,-132,5,1018.6,59.8,236.8
"2018-05-28 17:17:07+00",11.3,12.3,,57.2,489,-100,-6,1018.58,59.5,207.5
"2018-05-28 17:22:07+00",10.3,12.3,,57.1,406,-210,-1,1018.55,59.5,199.4
"2018-05-28 17:27:07+00",10.7,11.7,,56.9,454,-125,9,1018.47,59.5,208.3
"2018-05-28 17:32:07+00",10.6,12.6,,56.9,396,-236,-2,1018.43,59.7,241.7
"2018-05-28 17:37:07+00",9.9,11.9,,56.8,361,-240,-6,1018.37,59.9,252.7
"2018-05-28 17:42:07+00",10.4,11.4,,57,389,-232,-20,1018.38,60.1,212.6
"2018-05-28 17:47:07+00",8.4,10.4,,57,328,-156,13,1018.27,60,243.5
"2018-05-28 17:52:07+00",9.3,10.3,,57,314,-256,-23,1018.38,60,223.8
"2018-05-28 17:57:07+00",9.8,10.8,,57.1,353,-241,15,1018.32,60,155.3
"2018-05-28 18:02:07+00",8.3,10.3,,56.9,305,-190,12,1018.4,59.9,133.4
"2018-05-28 18:07:07+00",9.0,10.0,,57.1,397,-30,1,1018.32,59.7,160.4
"2018-05-28 18:12:07+00",9.0,10.0,,57.1,382,-101,-12,1018.27,59.5,170.5
"2018-05-28 18:17:07+00",8.5,9.5,,57.2,362,-81,11,1018.32,59.6,184.7
"2018-05-28 18:22:07+00",8.2,10.2,,57.3,351,-64,43,1018.18,60,276.2
"2018-05-28 18:27:07+00",9.0,10.0,,57.2,378,-113,-22,1018.03,60.3,318.7
"2018-05-28 18:32:07+00",8.4,9.4,,57.3,371,52,19,1018.06,60.6,262.1
"2018-05-28 18:37:07+00",9.2,10.2,,57.2,400,-20,-3,1018.04,60.4,233.5
"2018-05-28 18:42:07+00",9.0,10.0,,57.1,369,-142,-1,1017.97,60.1,179.7
"2018-05-28 18:47:07+00",8.7,10.7,,57.3,382,-50,38,1017.96,60.1,158.1
"2018-05-28 18:52:07+00",8.6,10.6,,57.2,354,-107,-11,1017.98,60.2,163.1
"2018-05-28 18:57:07+00",7.1,8.1,,57.4,300,-75,14,1018.03,60.1,156.4
"2018-05-28 19:02:07+00",8.2,10.2,,57.3,296,-193,-3,1018.02,60.1,160
"2018-05-28 19:07:07+00",8.2,9.2,,57,306,-174,-17,1018.09,59.8,155.3
"2018-05-28 19:12:07+00",7.1,9.1,,57.2,288,-160,20,1017.97,59.9,158
"2018-05-28 19:17:07+00",7.9,8.9,,57.2,298,-157,12,1017.81,59.8,229.5
"2018-05-28 19:22:07+00",8.7,9.7,,57.2,308,-219,10,1017.75,59.9,227.8
"2018-05-28 19:27:07+00",9.0,11.0,,57.3,335,-212,2,1017.74,59.9,174.6
"2018-05-28 19:32:07+00",9.5,10.5,,57.1,274,-296,13,1017.81,59.6,171.5
"2018-05-28 19:37:07+00",7.4,8.4,,57.3,296,-146,22,1017.94,59.9,146.8
"2018-05-28 19:42:07+00",9.4,10.4,,57.1,367,-175,-11,1017.91,60,135.1
"2018-05-28 19:47:07+00",7.9,8.9,,57.4,270,-205,59,1017.98,59.8,123.8
"2018-05-28 19:52:07+00",5.6,7.6,,57.3,173,-168,33,1017.98,59.3,126.3
"2018-05-28 19:57:07+00",7.9,8.9,,57.3,284,-192,-8,1017.83,59.5,147.7
"2018-05-28 20:02:07+00",9.1,10.1,,57.4,259,-296,-8,1017.88,59.3,131.9
"2018-05-28 20:07:07+00",9.2,10.2,,57.3,177,-354,-16,1017.83,59.1,155.2
"2018-05-28 20:12:07+00",9.7,10.7,,57.4,186,-371,0,1017.85,59.1,146.2
"2018-05-28 20:17:07+00",8.4,10.4,,57.7,108,-325,49,1017.84,59.2,126.4
"2018-05-28 20:22:07+00",9.5,11.5,,57.6,152,-374,-11,1017.78,59,139.1
"2018-05-28 20:27:07+00",11.3,13.3,,57.4,152,-452,-15,1017.66,58.9,112.6
"2018-05-28 20:32:07+00",9.2,11.2,,57.7,111,-367,9,1017.55,59,141
"2018-05-28 20:37:07+00",11.8,12.8,,57.5,86,-502,-26,1017.48,58.9,189.2
"2018-05-28 20:42:07+00",11.6,13.6,,57.5,124,-476,-33,1017.34,59.1,202.6
"2018-05-28 20:47:07+00",10.3,12.3,,57.8,118,-423,8,1017.18,59.3,167.7
"2018-05-28 20:52:07+00",11.2,12.2,,57.8,188,-440,-14,1017.21,59.2,189.3
"2018-05-28 20:57:07+00",11.0,13.0,,57.8,73,-457,-18,1017.29,59.2,145.3
"2018-05-28 21:02:07+00",12.5,13.5,,57.5,163,-516,-26,1017.19,59,106.4
"2018-05-28 21:07:07+00",10.7,11.7,,57.5,162,-433,-2,1017.25,58.8,119.1
"2018-05-28 21:12:07+00",8.1,11.1,,58,93,-326,6,1017.23,59,91.3
"2018-05-28 21:17:07+00",6.3,7.3,,57.6,35,-252,-16,1017.33,58.7,100.3
"2018-05-28 21:22:07+00",6.7,8.7,,57.7,57,-270,-11,1017.26,58.9,108.3
"2018-05-28 21:27:07+00",5.9,6.9,,57.7,63,-232,-26,1017.36,59,80.7
"2018-05-28 21:32:07+00",4.7,5.7,,57.7,141,-122,0,1017.31,59,65.7
"2018-05-28 21:37:07+00",3.4,4.4,,57.7,106,-84,-12,1017.28,59.2,68.4
"2018-05-28 21:42:07+00",4.7,5.7,,57.9,115,-155,7,1017.21,59.2,76.1
"2018-05-28 21:47:07+00",8.1,9.1,,58,133,-316,-11,1016.99,59.2,81.9
"2018-05-28 21:52:07+00",7.7,9.7,,58,82,-315,-2,1016.97,59.2,56.3
"2018-05-28 21:57:07+00",8.9,9.9,,57.8,208,-317,-10,1016.99,59,49.3
"2018-05-28 22:02:07+00",8.0,9.0,,57.6,197,-282,-3,1017.09,58.7,41.2
"2018-05-28 22:07:07+00",8.2,9.2,,57.6,189,-295,10,1017.07,58.6,32.2
"2018-05-28 22:12:07+00",7.9,8.9,,57.5,164,-296,-7,1017.17,58.6,23.8
"2018-05-28 22:17:07+00",7.3,8.3,,57.4,196,-245,-8,1017.14,58.4,23.4
"2018-05-28 22:22:07+00",6.2,7.2,,57.4,213,-160,11,1017.15,58.5,20.5
"2018-05-28 22:27:07+00",6.0,7.0,,57.5,155,-207,24,1017.13,58.6,14.3
"2018-05-28 22:32:07+00",6.1,7.1,,57.5,148,-209,3,1017.2,58.6,8.6
"2018-05-28 22:37:07+00",5.0,6.0,,57.5,143,-159,-14,1017.27,58.5,0.5
"2018-05-28 22:42:07+00",6.1,7.1,,57.4,229,-123,-3,1017.27,58.4,2.2
"2018-05-28 22:47:07+00",6.0,7.0,,57.5,212,-142,1,1017.44,58.5,0.3
"2018-05-28 22:52:07+00",5.7,6.7,,57.4,181,-156,-12,1017.35,58.5,0
"2018-05-28 22:57:07+00",6.4,7.4,,57.5,144,-226,5,1017.34,58.4,0.2
"2018-05-28 23:02:07+00",7.2,8.2,,57.6,127,-280,4,1017.26,58.3,0
"2018-05-28 23:07:07+00",8.6,9.6,,57.5,177,-323,-15,1017.18,58.2,0
"2018-05-28 23:12:07+00",8.2,9.2,,57.5,127,-316,-1,1017.16,58.1,0
"2018-05-28 23:17:07+00",9.0,11.0,,57.4,55,-382,-16,1017.12,58,0
"2018-05-28 23:22:07+00",8.0,9.0,,57.4,71,-338,-4,1016.93,57.9,0
"2018-05-28 23:27:07+00",8.9,10.9,,57.5,61,-367,2,1016.82,57.9,0
"2018-05-28 23:32:07+00",9.9,12.9,,57.4,62,-412,-13,1016.85,57.8,0
"2018-05-28 23:37:07+00",8.6,11.6,,57.5,62,-368,5,1016.88,57.8,0
"2018-05-28 23:42:07+00",8.5,13.5,,57.6,36,-364,-2,1016.84,57.8,0
"2018-05-28 23:47:07+00",8.2,10.2,,57.7,38,-339,5,1016.89,57.9,0
"2018-05-28 23:52:07+00",10.8,12.8,,57.6,25,-468,-40,1016.92,57.8,0
"2018-05-28 23:57:07+00",10.9,13.9,,57.6,13,-457,-20,1016.88,57.8,0
